[[{"header":{"parameterUnit":"m.s-1","parameterCategory":1,"la1":30.2991,"la2":30.254,"lo1":-89.0895,"lo2":-89.0444,"dy":0.0017,"dx":0.0017,"nx":28,"ny":28,"refTime":"2025-07-07T09:00:00:Z","depth":0,"parameterNumber":2,"parameterNumberName":"U-component_of_WINDS"},"data":[0,0,0,0,0,0,0,0,0,0,0,0,0,0,0,0,0,0,0,0,0,0,0,0,0,0,0,0,0,0,0,0,0,0,0,0,0,0,0,0,0,0,0,0,0,0,0,0,0,0,0,0,0,0,0,0,0,0,4.2148,4.2148,0,4.2226,4.2226,4.2227,4.2162,4.2159,4.2156,4.2153,4.2232,4.2237,4.2241,0,0,0,0,0,0,0,0,0,0,0,0,0,4.1938,4.1942,4.2147,4.2148,4.2149,4.2225,4.2226,4.2227,4.2162,4.2159,4.2155,4.2152,4.2231,4.2236,4.2242,0,0,0,0,0,0,0,0,0,0,0,0,0,4.2024,4.1944,4.2147,4.2126,4.2125,4.2225,4.2226,4.2228,4.2163,4.2159,4.2154,4.2151,4.2229,4.2236,4.2242,4.2368,0,0,4.2264,4.2267,0,0,0,0,0,0,0,0,4.2019,4.2032,4.2128,4.2128,4.2126,4.218,4.2181,4.2275,4.2164,4.2148,4.2153,4.2149,4.2218,4.2225,4.2249,4.2371,4.2375,4.2264,4.2269,4.2272,4.2273,0,0,0,0,0,0,0,4.2013,4.2028,4.2178,4.2129,4.2129,4.2111,4.2119,4.2199,4.2205,4.2149,4.2145,4.2155,4.2217,4.2243,4.225,4.2376,4.2264,4.227,4.2275,4.2277,4.2599,4.2604,0,0,0,0,0,0,4.201,4.2023,4.2176,4.2181,4.2062,4.2118,4.2127,4.2167,4.2204,4.2206,4.2158,4.2152,4.2233,4.2242,4.2253,4.2398,4.2271,4.2278,4.2282,4.2595,4.26,4.2605,0,0,0,0,0,0,4.2006,4.2024,4.2173,4.2101,4.2118,4.2126,4.2172,4.217,4.2196,4.2211,4.2211,4.2184,4.223,4.2243,4.2338,4.24,4.2281,4.2287,4.259,4.2597,4.2603,4.2692,0,0,0,0,0,0,4.2,4.2023,4.2072,4.2102,4.2122,4.2258,4.2175,4.2175,4.2208,4.22,4.2235,4.2237,4.2228,4.2328,4.2345,4.2407,4.2293,4.2584,4.2593,4.2601,4.2683,4.2701,4.2715,0,0,0,0,0,4.1993,4.2094,4.2074,4.2093,4.2184,4.2262,4.2273,4.2261,4.2214,4.2262,4.2271,4.2236,4.2391,4.2339,4.2357,4.2422,4.258,4.2591,4.26,4.2676,4.2697,4.2715,0,0,0,0,0,0,4.2071,4.2098,4.2076,4.2191,4.2225,4.2251,4.2311,4.2285,4.2332,4.2322,4.2305,4.2313,4.2413,4.2428,4.2369,4.2543,4.2478,4.2492,4.2529,4.2549,4.2565,4.2558,4.2299,0,0,0,0,0,4.2101,4.2164,4.2184,4.2283,4.2301,4.2303,4.2337,4.2325,4.2358,4.2372,4.2388,4.2422,4.2477,4.2515,4.2568,4.2686,4.269,4.274,4.2756,4.2769,4.278,4.2839,4.286,4.2638,4.2637,4.2637,0,0,4.2165,4.2188,4.2228,4.2299,4.2324,4.2386,4.2316,4.2386,4.2432,4.2383,4.2472,4.2486,4.2522,4.2628,4.2676,4.2643,4.2843,4.2781,4.2792,4.2796,4.2851,4.2872,4.2891,4.2644,4.2643,4.2642,0,0,4.2312,4.2338,4.2421,4.2446,4.2484,4.2485,4.2505,4.2535,4.2541,4.2631,4.2594,4.2648,4.2746,4.2772,4.2798,4.2953,4.2921,4.2971,4.3053,4.3111,4.3128,4.3144,4.3195,4.3214,4.2983,4.2983,4.2983,0,4.2386,4.2481,4.2467,4.2539,4.257,4.2528,4.2611,4.2636,4.2689,4.2711,4.2674,4.2794,4.2816,4.2925,4.2962,4.2987,4.3006,4.2965,4.3127,4.3142,4.3157,4.3205,4.3225,4.2988,4.2988,4.2987,4.2987,0,4.2568,4.2634,4.2696,4.2747,4.2785,4.2863,4.2859,4.2899,4.2883,4.2887,4.2977,4.3002,4.3056,4.3082,4.3068,4.3189,4.3167,4.313,4.3063,4.3183,4.3228,4.3247,4.2996,4.2994,4.2993,4.2991,0,0,4.2766,4.2807,4.283,4.2851,4.2888,4.2938,4.3013,4.3066,4.3099,4.3137,4.3196,4.3279,4.3243,4.3273,4.3261,4.3313,4.3428,4.3268,4.3268,4.3293,4.3558,4.3583,4.3605,4.3408,4.3412,4.3415,4.3553,0,4.2911,4.304,4.3029,4.315,4.3208,4.3169,4.3233,4.3262,4.3267,4.3317,4.3322,4.3379,4.333,4.3347,4.3397,4.3404,4.348,4.3394,4.346,4.3463,4.3449,4.3629,4.3657,4.3786,4.3571,4.3574,4.3576,0,4.3098,4.3141,4.3268,4.3293,4.3317,4.3375,4.3421,4.347,4.3501,4.3501,4.3533,4.3512,4.3584,4.3518,4.3616,4.3557,4.3584,4.3591,4.3596,4.3599,4.3524,4.3633,4.3828,4.3845,4.3605,4.3603,4.3601,0,4.3224,4.3314,4.3401,4.3421,4.3454,4.3494,4.351,4.3537,4.3569,4.3609,4.3629,4.3678,4.3704,4.3741,4.3732,4.3686,4.383,4.3765,4.383,4.383,4.3859,4.3857,4.4057,4.3883,4.3883,4.3883,4.3882,0,4.3386,4.3464,4.3457,4.351,4.3595,4.3581,4.3666,4.3676,4.37,4.3753,4.3723,4.3773,4.376,4.3809,4.3803,4.3882,4.3895,4.3895,4.3891,4.3895,4.3895,4.391,4.3899,4.3888,4.3887,4.3886,4.3885,0,4.354,4.3539,4.363,4.3653,4.3661,4.3722,4.3741,4.379,4.3793,4.3859,4.3874,4.3878,4.3933,4.3929,4.3992,4.3988,4.4084,4.4073,4.4073,4.4069,4.4132,4.4125,4.4346,4.4372,4.4186,4.4188,4.4189,0,4.3641,4.37,4.3729,4.3762,4.378,4.3834,4.3865,4.3854,4.3887,4.3926,4.3969,4.4022,4.4063,4.4153,4.416,4.4208,4.4194,4.4269,4.4201,4.4201,4.419,4.4185,4.4189,4.4281,4.4283,4.4284,4.4286,0,4.3819,4.3815,4.3862,4.3909,4.3947,4.3983,4.4016,4.4044,4.4035,4.4075,4.4131,4.4163,4.4226,4.4277,4.4321,4.4336,4.4308,4.4308,4.4324,4.4326,4.4323,4.4321,4.4105,4.4302,4.43,4.4299,4.4298,4.4297,4.3947,4.3996,4.4023,4.4075,4.4098,4.4129,4.4174,4.4182,4.4229,4.4279,4.4269,4.4331,4.4358,4.4414,4.4433,4.448,4.4453,4.4478,4.4484,4.4489,4.4494,4.4319,4.4489,4.4488,4.4488,4.4487,4.4487,0,4.4119,4.4135,4.4183,4.4229,4.4269,4.4241,4.4275,4.431,4.4365,4.4393,4.4433,4.4496,4.4545,4.4556,4.4603,4.4638,4.4626,4.465,4.4645,4.4648,4.4518,4.4497,4.4658,4.4658,4.4658,4.4658,4.4658,4.4658,4.4214,4.4293,4.4292,4.4382,4.4396,4.4457,4.4478,4.4505,4.4526,4.4597,4.4638,4.4645,4.4664,4.4712,4.4755,4.4756,4.4773,4.4801,4.4797,4.4675,4.4658,4.4641,4.4621,4.4806,4.4806,4.4923,4.4924,4.4925]},{"header":{"parameterUnit":"m.s-1","parameterCategory":1,"la1":30.2991,"la2":30.254,"lo1":-89.0895,"lo2":-89.0444,"dy":0.0017,"dx":0.0017,"nx":28,"ny":28,"refTime":"2025-07-07T09:00:00:Z","depth":0,"parameterNumber":3,"parameterNumberName":"V-component_of_WINDS"},"data":[0,0,0,0,0,0,0,0,0,0,0,0,0,0,0,0,0,0,0,0,0,0,0,0,0,0,0,0,0,0,0,0,0,0,0,0,0,0,0,0,0,0,0,0,0,0,0,0,0,0,0,0,0,0,0,0,0,0,3.9996,3.9996,0,4.0074,4.0075,4.0075,4.004,4.0038,4.0036,4.0035,4.0111,4.0115,4.0118,0,0,0,0,0,0,0,0,0,0,0,0,0,3.9811,3.9814,3.9995,3.9996,3.9997,4.0073,4.0075,4.0076,4.0041,4.0038,4.0036,4.0034,4.011,4.0114,4.0119,0,0,0,0,0,0,0,0,0,0,0,0,0,3.989,3.9816,3.9995,3.9989,3.9989,4.0073,4.0075,4.0076,4.0041,4.0038,4.0035,4.0033,4.0108,4.0114,4.0119,4.0212,0,0,4.0137,4.0139,0,0,0,0,0,0,0,0,3.9886,3.9897,3.9989,3.999,3.999,4.0044,4.0037,4.0122,4.0042,4.0021,4.0035,4.0031,4.0091,4.0098,4.0119,4.0216,4.0219,4.0137,4.0141,4.0143,4.0145,0,0,0,0,0,0,0,3.988,3.9893,4.0026,3.999,3.9991,3.9981,3.9989,4.0053,4.0071,4.0023,4.0021,4.0031,4.009,4.0113,4.012,4.022,4.0137,4.0142,4.0146,4.0148,4.0395,4.0398,0,0,0,0,0,0,3.9875,3.9889,4.0024,4.0029,3.993,3.9987,3.9996,4.003,4.007,4.0074,4.0033,4.0029,4.0105,4.0114,4.0123,4.0233,4.0143,4.0149,4.0152,4.0392,4.0396,4.0399,0,0,0,0,0,0,3.9872,3.9888,4.0021,3.9958,3.9974,3.9993,4.0032,4.0033,4.0056,4.0078,4.0081,4.0053,4.0103,4.0115,4.019,4.0235,4.0151,4.0156,4.0388,4.0393,4.0398,4.0455,0,0,0,0,0,0,3.9867,3.9887,3.9924,3.9959,3.9978,4.0089,4.0034,4.0036,4.0066,4.0061,4.0098,4.0101,4.0102,4.0182,4.0196,4.0241,4.0161,4.0384,4.0391,4.0396,4.0449,4.0461,4.0471,0,0,0,0,0,3.986,3.9936,3.9926,3.9942,4.0025,4.0091,4.0102,4.0102,4.007,4.0106,4.012,4.01,4.0228,4.019,4.0205,4.0253,4.0382,4.0389,4.0396,4.0444,4.0458,4.047,0,0,0,0,0,0,3.9905,3.9941,3.993,4.002,4.0053,4.0085,4.0131,4.0118,4.0159,4.0153,4.015,4.0158,4.0236,4.0252,4.0209,4.0344,4.03,4.031,4.0331,4.0345,4.0356,4.035,4.0166,0,0,0,0,0,3.9925,3.9978,4.0006,4.0083,4.01,4.0113,4.0142,4.0139,4.0172,4.0186,4.0205,4.0237,4.0284,4.0315,4.036,4.0451,4.0457,4.0491,4.0502,4.0511,4.052,4.0567,4.0581,4.0422,4.0422,4.0422,0,0,3.9968,3.9994,4.0027,4.0092,4.0118,4.017,4.0125,4.0183,4.0221,4.0194,4.0266,4.0282,4.0317,4.04,4.0437,4.0416,4.0565,4.052,4.0527,4.0531,4.0575,4.059,4.0604,4.0427,4.0426,4.0425,0,0,4.0072,4.0098,4.0164,4.019,4.0229,4.0237,4.0252,4.0287,4.0296,4.0369,4.0349,4.0394,4.0476,4.0501,4.0524,4.0636,4.0618,4.0651,4.0708,4.0753,4.0766,4.0777,4.0815,4.0829,4.066,4.066,4.066,0,4.012,4.02,4.02,4.0259,4.0287,4.0266,4.0331,4.0356,4.0407,4.0426,4.0401,4.0502,4.0525,4.0612,4.0639,4.066,4.0676,4.0646,4.0765,4.0776,4.0786,4.0822,4.0837,4.0663,4.0663,4.0663,4.0662,0,4.0255,4.0311,4.0359,4.0409,4.0443,4.0505,4.0513,4.0546,4.054,4.055,4.0623,4.0649,4.0697,4.0718,4.0712,4.0804,4.0789,4.0765,4.072,4.0805,4.0838,4.0852,4.0668,4.0667,4.0666,4.0665,0,0,4.039,4.0439,4.0457,4.0478,4.0519,4.0561,4.0621,4.0669,4.0697,4.0732,4.0781,4.085,4.0827,4.0854,4.0851,4.0891,4.0975,4.0861,4.0862,4.088,4.1075,4.1092,4.1109,4.0964,4.0967,4.0969,4.1072,0,4.0496,4.0603,4.0604,4.0701,4.0751,4.0731,4.0782,4.0812,4.0822,4.0864,4.0875,4.0923,4.089,4.0906,4.0945,4.0957,4.1014,4.095,4.1007,4.1009,4.0998,4.1127,4.1146,4.1242,4.1085,4.1087,4.1089,0,4.0635,4.0675,4.0777,4.0809,4.0829,4.0876,4.092,4.0961,4.0993,4.0997,4.1026,4.1017,4.1075,4.1029,4.1109,4.1065,4.1088,4.1097,4.1101,4.1105,4.1054,4.1133,4.1272,4.1286,4.111,4.1108,4.1107,0,4.0721,4.08,4.0871,4.0891,4.093,4.0963,4.098,4.1009,4.1037,4.1075,4.1093,4.1136,4.1159,4.1192,4.1194,4.116,4.1273,4.1228,4.1277,4.1277,4.1301,4.1299,4.1444,4.1318,4.1318,4.1318,4.1317,0,4.0838,4.0901,4.091,4.0954,4.1023,4.1023,4.109,4.1105,4.113,4.1175,4.116,4.1201,4.1201,4.1243,4.1244,4.1308,4.1319,4.1323,4.1322,4.1324,4.1323,4.1338,4.1331,4.1321,4.132,4.132,4.1319,0,4.0946,4.0955,4.1031,4.1061,4.107,4.1119,4.1144,4.1185,4.1193,4.1249,4.1262,4.1275,4.1323,4.1328,4.1384,4.1385,4.1462,4.1455,4.1452,4.145,4.1498,4.1493,4.1657,4.1678,4.154,4.1541,4.1542,0,4.102,4.1068,4.1103,4.1132,4.1152,4.1199,4.1228,4.1228,4.1258,4.1297,4.1332,4.1379,4.1417,4.1494,4.1508,4.155,4.1542,4.1597,4.1548,4.1548,4.1541,4.1538,4.1541,4.1606,4.1608,4.1609,4.161,0,4.1149,4.1151,4.1194,4.1238,4.1273,4.1308,4.134,4.1364,4.1368,4.1403,4.1452,4.1481,4.1538,4.1584,4.1625,4.1641,4.1625,4.1625,4.1638,4.164,4.1635,4.1636,4.1476,4.1621,4.162,4.1619,4.1619,4.1618,4.1241,4.1282,4.1313,4.1361,4.1385,4.1415,4.1454,4.1467,4.1509,4.1556,4.1553,4.1608,4.1636,4.1689,4.1708,4.1749,4.173,4.175,4.1755,4.1759,4.1763,4.163,4.1756,4.1756,4.1756,4.1756,4.1755,0,4.1369,4.1387,4.1431,4.1477,4.1514,4.1497,4.1531,4.1563,4.1611,4.1639,4.1676,4.1732,4.1776,4.1792,4.1835,4.1864,4.1858,4.1875,4.1872,4.1876,4.1778,4.1762,4.1879,4.1879,4.1879,4.1879,4.1879,4.1879,4.1439,4.1507,4.1512,4.1591,4.1608,4.1662,4.1683,4.171,4.1732,4.1795,4.1832,4.1843,4.1865,4.1909,4.1948,4.1951,4.1967,4.1987,4.1987,4.1895,4.1883,4.1871,4.1855,4.1991,4.1991,4.2081,4.2081,4.2082]}]]